NIMBUS 2 DEB, 28209

Orbit data source: Space-Track

NIMBUS 2 DEB, 28209 is space debris in SSO originally from a launch on Sun, 15 May 1966 UTC launched from the Air Force Western Test Range (AFWTR). Debris objects in space refer to the collection of defunct objects orbiting the Earth. Examples of debris include non-operational satellites, rocket bodies, and fragments generated from explosions, collisions, or faulty payload assembly.

Loading next visibility...
Identifier
28209, 1966-040X
Orbit
SSO
Country
Flag of USUS
Related business
Manufacturer
Unknown
Mission
Spacecraft
Bus & Motor
Unknown
Mass
Unknown
Launch date (UTC)
1966-05-15 (60 years ago)
Launch vehicle
Unknown
Launch site
Air Force Western Test Range (AFWTR)
Object type
Payload
Rocket body
Debris
Shape & HBR
Unknown shape, 0.1 m
Radar Cross Section
Small (<0.1 m²)

Expand to show TLE details & history
Last TLE update: 1 week ago

TLE from 1 week ago
0 NIMBUS 2 DEB
1 28209U 66040X   26121.75441097  .00002328  00000-0  29201-2 0  9997
2 28209 100.3113 111.9259 0044398  51.8239 121.8071 13.64962747626593
Epoch: 2026-05-01T18:06Z
TLE epoch observation values (Epoch: 2026-05-01T18:06:21.107Z)
Latitude
5.76425°
Longitude
161.70273°
Altitude
1,037.348 km
Speed
7.325 km/s
True Right ascension
19h 31m 53s
True Declination
5° 43' 53"
Sunlit
Object was in daylight at epoch
Visualization orbit readout
Latitude
Unknown
Longitude
Unknown
Altitude
Unknown
Speed
Unknown
Apparent Right ascension
Unknown
Apparent Declination
Unknown
Sunlit
N/A
Visualization observer readout
Local Sidereal Time
07:00:11
Azimuth
Unknown
Elevation
Unknown
Doppler factor
Unknown
Orbital elements
Apogee altitude
1,047.849 km
Perigee altitude
982.201 km
Semi-major axis
7,393.162 km
Eccentricity
0.00444
Inclination
100.3113°
RAAN
111.9259°
Arg. of periapsis
51.8239°
True anomaly
122.2382°
Mean anomaly
121.8071°
Eccentric anomaly
122.02277°
Mean motion
3.41427 °/min
Orbital period
105.44 mins
BSTAR
0.0029201
Loading maneuver chart data...
Computing Atmospheric mass density...
Loading historical data...
Loading historical data...
Loading historical data...
Loading historical data...
Loading historical data...
Loading historical data...
Loading historical data...

Documentation

Showing up to 5 results
|